CZ-2C DEB, 40291

Orbit data source: Space-Track

CZ-2C DEB, 40291 is space debris in SSO originally from a launch on Mon, 27 Oct 2014 UTC launched from the Jiuquan Satellite Launch Center, China (JSC). Debris objects in space refer to the collection of defunct objects orbiting the Earth. Examples of debris include non-operational satellites, rocket bodies, and fragments generated from explosions, collisions, or faulty payload assembly.

Loading next visibility...
Identifier
40291, 2014-066F
Orbit
SSO
Country
Flag of CNCN / PRC
Related business
Manufacturer
CALT
Mission
Spacecraft
Bus & Motor
Unknown
Mass
1 kg wet, 1 kg dry
Launch date (UTC)
2014-10-27 (12 years ago)
Launch vehicle
Unknown
Launch site
Jiuquan Satellite Launch Center, China (JSC)
Object type
Payload
Rocket body
Debris
Shape & HBR
Cone, 0.1 m
Radar Cross Section
0.025 m², Small (<0.1 m²)

Expand to show TLE details & history
Last TLE update: 6 hours ago

TLE from 6 hours ago
0 CZ-2C DEB
1 40291U 14066F   26121.51270605  .00003636  00000-0  11080-2 0  9991
2 40291  98.2734 110.8426 0155305  56.9185 304.6804 14.35815929599012
Epoch: 2026-05-01T12:18Z
TLE epoch observation values (Epoch: 2026-05-01T12:18:17.802Z)
Latitude
-0.00009°
Longitude
66.82455°
Altitude
713.288 km
Speed
7.531 km/s
True Right ascension
07h 23m 22s
True Declination
0° 00' 00"
Sunlit
Object was in daylight at epoch
Visualization orbit readout
Latitude
Unknown
Longitude
Unknown
Altitude
Unknown
Speed
Unknown
Apparent Right ascension
Unknown
Apparent Declination
Unknown
Sunlit
N/A
Visualization observer readout
Local Sidereal Time
01:47:21
Azimuth
Unknown
Elevation
Unknown
Doppler factor
Unknown
Orbital elements
Apogee altitude
880.478 km
Perigee altitude
658.466 km
Semi-major axis
7,147.609 km
Eccentricity
0.01553
Inclination
98.2734°
RAAN
110.8426°
Arg. of periapsis
56.9185°
True anomaly
303.20074°
Mean anomaly
304.6804°
Eccentric anomaly
303.94219°
Mean motion
3.59172 °/min
Orbital period
100.23 mins
BSTAR
0.001108
Loading maneuver chart data...
Computing Atmospheric mass density...
Loading historical data...
Loading historical data...
Loading historical data...
Loading historical data...
Loading historical data...
Loading historical data...
Loading historical data...
Other satellites on launch #66 in the year 2014 (2014-10-27 UTC)

Documentation

Showing up to 5 results
|